Location: Ebersheim
(48.3033°N, 7.4991°E)
Time: 06:16:48
(UTC+00:00)

Cosmos 1656 Rocket - Pass Details

Date: 27 February 2020
Orbit: 794 x 848 km, 71.1° (Epoch: 28 March)

Event Time Altitude Azimuth Distance (km) Brightness Sun altitude
Rises 18:16:50 0° 210° (SSW) 3,324 7.2 -11.9°
Reaches altitude 10° 18:19:13 10° 211° (SSW) 2,405 6.5 -12.3°
Maximum altitude 18:24:45 79° 299° (WNW) 848 3.8 -13.2°
Drops below altitude 10° 18:30:24 10° 26° (NNE) 2,457 5.9 -14.1°
Sets 18:32:52 0° 28° (NNE) 3,402 6.6 -14.5°
